Tracking 19562 objects as of 22-Mar-2019
HD Live streaming from Space Station
objects crossing your sky now

FENGYUN 1C DEB

Track FENGYUN 1C DEB now!
10-day predictions


NORAD ID: 30333
Int'l Code: 1999-025AAU
Perigee: 514.0 km
Apogee: 723.7 km
Inclination: 98.9 °
Period: 96.9 minutes
Semi major axis: 6989 km
RCS: 0.026 m2 (small)
Launch date: May 10, 1999
Source: People's Republic of China (PRC)
Launch site: Taiyaun Space Center, China (TSC)

Note: This is SATELLITE DEBRIS
aabbcc
Your satellite tracking list
Your tracking list is empty




NASA's NSSDC Master Catalog

Two Line Element Set (TLE):
1 30333U 99025AAU 19080.82109156 +.00001686 +00000-0 +16661-3 0  9991
2 30333 098.8747 184.1264 0149957 177.7422 309.6130 14.85601876651941
Source of the keplerian elements: AFSPC